Regional Weather Roundup
Issued by NWS Goodland, KS

Home | Current Version | Previous Version | Text Only | Print | Product List | Glossary Off
Versions: 1 2 3 4 5 6 7 8 9 10 11 12 13 14 15 16 17 18 19 20 21 22 23 24 25 26 27 28 29 30 31 32 33 34 35 36 37 38 39 40 41 42 43 44 45 46 47 48 49 50

000
ASUS43 KGLD 051408
RWRGLD

GOODLAND FORECAST AREA HOURLY WEATHER ROUNDUP
NATIONAL WEATHER SERVICE GOODLAND KS
800 AM MDT THU MAY 05 2016

...OFFICIAL OBSERVATIONS...

CITY           SKY/WX    TMP DP  RH WIND       PRES   REMARKS
GOODLAND KS    SUNNY     61  45  55 S14       30.12R
HILL CITY KS   SUNNY     56  47  71 CALM      30.14R
IMPERIAL NEB   SUNNY     57  45  64 SW6       30.11S
MCCOOK NEB     SUNNY     53  46  77 CALM      30.12R
AKRON CO       CLOUDY    60  41  49 SW12      30.12R
BURLINGTON CO  SUNNY     58  42  55 S9        30.14R
LIMON CO       SUNNY     53  45  74 CALM      30.18R
$$

...UNOFFICIAL OBSERVATIONS...

CITY           SKY/WX    TMP DP  RH WIND       PRES   REMARKS
COLBY KS       SUNNY     61  54  77 S5        30.14S
LENORA KS        N/A     61  32  33 MISG        N/A
NORTON KS      SUNNY     57  45  62 CALM      30.12S
SHARON SPRINGS   N/A     62  49  62 S12         N/A
KIT CARSON CO    N/A     57  46  66 MISG        N/A
YUMA CO          N/A     64  46  52 SW12        N/A
$$




USA.gov is the U.S. government's official web portal to all federal, state and local government web resources and services.